Regional Weather Roundup
Issued by NWS

Home | Current Version | Previous Version | Graphics & Text | Print | Product List | Glossary On
Versions: 1 2 3 4 5 6 7 8 9 10 11 12 13 14 15 16 17 18 19 20 21 22 23 24 25 26 27 28 29 30 31 32 33 34 35 36 37 38 39 40 41 42 43 44 45 46 47 48 49 50
000
ASUS44 KMEG 301500
RWRTN
TENNESSEE HOURLY STATE WEATHER ROUNDUP
NATIONAL WEATHER SERVICE MEMPHIS TN
1000 AM CDT SAT MAY 30 2015

TNZ002-004-019-021-049-052-054-088>092-301600-
WEST TENNESSEE

CITY           SKY/WX    TMP DP  RH WIND       PRES   REMARKS
MEMPHIS INTL   PTSUNNY   78  70  76 S16G24    30.00S
NWS MEMPHIS      N/A     75 N/A N/A MISG        N/A
JACKSON        CLOUDY    79  69  71 S13G18    30.02F
DYERSBURG      CLOUDY    77  57  50 S14       30.00S
PARIS          CLOUDY    75  66  73 S8        30.03F
LEXINGTON      MOSUNNY   75  70  83 S12       30.05S
$$

TNZ008-025-027-028-033-062-065-066-301600-
NORTH MIDDLE TENNESSEE

CITY           SKY/WX    TMP DP  RH WIND       PRES   REMARKS
NASHVILLE      PTSUNNY   80  68  66 S10       30.09F
CLARKSVILLE    PTSUNNY   77  68  73 S13G20    30.05S
COOKEVILLE     SUNNY     81  64  57 S10         N/A
CROSSVILLE     SUNNY     74  60  61 S10       30.19F
$$

TNZ061-075-076-078-094-096-097-301600-
SOUTH MIDDLE TENNESSEE

CITY           SKY/WX    TMP DP  RH WIND       PRES   REMARKS
FAYETTEVILLE   MOSUNNY  N/A N/A N/A MISG      30.13S
TULLAHOMA      SUNNY     79  64  61 S8        30.14F
WINCHESTER     SUNNY     81  64  57 S8        30.14S
MCMINNVILLE    MOSUNNY   82  66  57 SW9       30.14R
COLUMBIA       MOSUNNY   81  70  69 S12       30.08F
SHELBYVILLE    SUNNY     81  70  69 S14       30.12F
$$

TNZ017-018-042-046-047-301600-
NORTHEAST TENNESSEE

CITY           SKY/WX    TMP DP  RH WIND       PRES   REMARKS
TRI CITIES     MOSUNNY   79  59  50 VRB3      30.21F
ELIZABETHTON   SUNNY     75  59  57 VRB3      30.21F
$$

TNZ012-013-036-069-073-074-301600-
CENTRAL EAST TENNESSEE

CITY           SKY/WX    TMP DP  RH WIND       PRES   REMARKS
KNOXVILLE      MOSUNNY   79  59  50 N3        30.16F
OAK RIDGE      MOSUNNY   80  60  50 SE8       30.18F
GATLINBURG     SUNNY     77  61  57 CALM      30.17F
$$

TNZ083-085-099-301600-
SOUTHEAST TENNESSEE

CITY           SKY/WX    TMP DP  RH WIND       PRES   REMARKS
CHATTANOOGA    MOSUNNY   78  64  61 S8        30.16F
$$

SKY/WX REPORTED AS FAIR MEANS FEW OR NO CLOUDS BELOW
12 THOUSAND FEET.



USA.gov is the U.S. government's official web portal to all federal, state and local government web resources and services.